Hot Springs, AR

10:19 PM CDT on September 28, 2016 (GMT -0500)
Hot Springs Memorial

Weather History for KHOT - October, 2012

Change the Weather History Date:

Friday, October 19, 2012

  Actual Average Record
Temperature  
Mean Temperature 58 °F -  
Max Temperature 70 °F 73 °F 89 °F (2004)
Min Temperature 46 °F 48 °F 31 °F (1989)
Degree Days  
Heating Degree Days 7    
Growing Degree Days 8 (Base 50)    
Moisture  
Dew Point 35 °F    
Average Humidity 45    
Maximum Humidity 86    
Minimum Humidity 26    
Precipitation  
Precipitation 0.00 in - - ()
Sea Level Pressure  
Sea Level Pressure 29.84 in    
Wind  
Wind Speed 6 mph (WNW)    
Max Wind Speed 15 mph    
Max Gust Speed 24 mph    
Visibility 10 miles    
Events      
Averages and records for this station are not official NWS values.
T = Trace of Precipitation, MM = Missing Value Source: NWS Daily Summary

Daily Weather History Graph

Daily Weather History Graph

Search for Another Location

Airport or City:

Trip Planner

Search our weather history database for the weather conditions in past years. The results will help you decide how hot, cold, wet, or windy it might be!

Date:

Astronomy

Oct. 19, 2012 Rise Set
Actual Time 7:21 AM CDT 6:32 PM CDT
Civil Twilight 6:56 AM CDT 6:57 PM CDT
Nautical Twilight 6:26 AM CDT 7:27 PM CDT
Astronomical Twilight 5:57 AM CDT 7:56 PM CDT
Moon 11:56 AM CDT (10/19) 10:19 PM CDT (10/19)
Length of Visible Light 12h 01m
Length of Day
11h 10m
Waxing Crescent, 24% of the Moon is Illuminated
Oct 19
Waxing Crescent
Oct 21
First Quarter
Oct 29
Full
Nov 6
Last Quarter
Nov 13
New

Hourly Weather History & Observations

Time (CDT) Temp. Dew Point Humidity Pressure Visibility Wind Dir Wind Speed Gust Speed Precip Events Conditions
12:53 AM 57.0 °F 30.0 °F 36% 29.83 in 10.0 mi West 9.2 mph - N/A   Overcast
1:53 AM 55.9 °F 30.9 °F 39% 29.83 in 10.0 mi West 9.2 mph - N/A   Overcast
2:53 AM 54.0 °F 32.0 °F 43% 29.82 in 10.0 mi West 5.8 mph - N/A   Overcast
3:53 AM 54.0 °F 30.9 °F 41% 29.81 in 10.0 mi WNW 4.6 mph - N/A   Overcast
4:33 AM 53.6 °F 30.2 °F 41% 29.82 in 10.0 mi NW 3.5 mph - N/A   Overcast
4:53 AM 52.0 °F 32.0 °F 47% 29.81 in 10.0 mi WNW 3.5 mph - N/A   Overcast
5:53 AM 51.1 °F 32.0 °F 48% 29.82 in 10.0 mi WNW 4.6 mph - N/A   Mostly Cloudy
6:53 AM 50.0 °F 32.0 °F 50% 29.83 in 10.0 mi Calm Calm - N/A   Mostly Cloudy
7:00 AM 50.0 °F 33.8 °F 54% 29.84 in 10.0 mi Calm Calm - N/A   Scattered Clouds
7:53 AM 46.0 °F 36.0 °F 68% 29.84 in 10.0 mi Calm Calm - N/A   Clear
8:53 AM 54.0 °F 33.1 °F 45% 29.85 in 10.0 mi West 5.8 mph - N/A   Clear
9:53 AM 60.1 °F 32.0 °F 35% 29.85 in 10.0 mi West 5.8 mph 17.3 mph N/A   Clear
10:53 AM 62.1 °F 30.9 °F 31% 29.86 in 10.0 mi WNW 11.5 mph 24.2 mph N/A   Clear
11:53 AM 64.0 °F 32.0 °F 30% 29.85 in 10.0 mi WNW 11.5 mph 20.7 mph N/A   Clear
12:53 PM 66.9 °F 35.1 °F 31% 29.84 in 10.0 mi WNW 9.2 mph 19.6 mph N/A   Clear
1:53 PM 68.0 °F 36.0 °F 31% 29.83 in 10.0 mi WNW 11.5 mph 23.0 mph N/A   Clear
2:53 PM 70.0 °F 35.1 °F 28% 29.82 in 10.0 mi West 15.0 mph 23.0 mph N/A   Clear
3:53 PM 69.1 °F 33.1 °F 26% 29.81 in 10.0 mi NW 11.5 mph 24.2 mph N/A   Clear
4:53 PM 69.1 °F 35.1 °F 29% 29.82 in 10.0 mi WNW 8.1 mph 20.7 mph N/A   Clear
5:53 PM 68.0 °F 34.0 °F 28% 29.83 in 10.0 mi WNW 6.9 mph 16.1 mph N/A   Clear
6:53 PM 64.0 °F 35.1 °F 34% 29.84 in 10.0 mi WNW 3.5 mph - N/A   Clear
7:53 PM 57.0 °F 39.0 °F 51% 29.86 in 10.0 mi Calm Calm - N/A   Clear
8:53 PM 52.0 °F 43.0 °F 71% 29.88 in 10.0 mi Calm Calm - N/A   Clear
9:53 PM 50.0 °F 42.1 °F 74% 29.89 in 10.0 mi Calm Calm - N/A   Clear
10:53 PM 48.0 °F 42.1 °F 80% 29.90 in 10.0 mi Calm Calm - N/A   Clear
11:53 PM 46.0 °F 42.1 °F 86% 29.90 in 10.0 mi Calm Calm - N/A   Clear